Regional Weather Roundup
Issued by NWS

Home | Current Version | Previous Version | Text Only | Print | Product List | Glossary On
Versions: 1 2 3 4 5 6 7 8 9 10 11 12 13 14 15 16 17 18 19 20 21 22 23 24 25 26 27 28 29 30 31 32 33 34 35 36 37 38 39 40 41 42 43 44 45 46 47 48 49 50
000
ASUS46 KSTO 291804
RWRCA

NORTHERN AND CENTRAL CA REGIONAL WEATHER ROUNDUP
NATIONAL WEATHER SERVICE SACRAMENTO CA
1100 AM PDT WED JUL 29 2015

NOTE: FAIR INDICATES FEW OR NO CLOUDS BELOW 12,000 FEET WITH NO
SIGNIFICANT WEATHER AND/OR OBSTRUCTIONS TO VISIBILITY.

CAZ001-003-291900-
NORTHWEST AREA

CITY           SKY/WX    TMP DP  RH WIND       PRES   REMARKS
CRESCENT CITY  SUNNY     72  53  51 N9        29.90S
UKIAH          SUNNY     87  43  21 CALM      29.91F
$$

CAZ006-505>513-291900-
BAY AREA

CITY           SKY/WX    TMP DP  RH WIND       PRES   REMARKS
SANTA ROSA     SUNNY     83  51  33 S6        29.90S
SAN RAFAEL     N/A       67  MM  MM MISG
NAPA           SUNNY     76  58  53 S6        29.92R
CONCORD        SUNNY     86  54  33 NW7       29.90S
OAKLAND CITY   N/A       66  MM  MM MISG
OAKLAND        SUNNY     75  57  53 NW9       29.93R
SAN FRAN CITY  N/A       65  MM  74 MISG
SAN FRAN ARPT  MOSUNNY   71  61  70 N5        29.93R
LIVERMORE      SUNNY     90  44  20 W5        29.90S
HAYWARD        SUNNY     77  58  51 W8        29.92S
REDWOOD CITY   N/A       MM  MM  MM MISG
MOFFETT ARPT   SUNNY     76  62  62 N6        29.93R
SAN JOSE ARPT  SUNNY     81  48  31 CALM      29.91S
$$
CAZ034-037-514>518-291900-
CENTRAL COAST

CITY           SKY/WX    TMP DP  RH WIND       PRES   REMARKS
WATSONVILLE    CLOUDY    65  57  75 SW6       29.97R
SALINAS        SUNNY     68  56  65 W7        29.95S
MONTEREY       MOSUNNY   66  57  72 NW3       29.96S
SAN LUIS OBISP SUNNY     69  59  70 SW5       29.95F
SANTA MARIA    MOSUNNY   69  60  73 VRB5      29.96S
$$
CAZ015-016-291900-
NORTHERN SACRAMENTO VALLEY

CITY           SKY/WX    TMP DP  RH WIND       PRES   REMARKS
REDDING        SUNNY     99  31   9 N10G20    29.89F HX  93
RED BLUFF      SUNNY    101  31   8 N12       29.89F HX  94
OROVILLE         N/A    N/A N/A N/A MISG      29.90S
$$
CAZ016>018-291900-
SOUTHERN SACRAMENTO VALLEY

CITY           SKY/WX    TMP DP  RH WIND       PRES   REMARKS
AUBURN         SUNNY     95  43  16 W7        29.96S HX  91
BEALE AFB      SUNNY     91  47  22 W7        29.87S
LINCOLN        FAIR      93  34  12 NW6       29.88S
MARYSVILLE     SUNNY     92  46  20 SW3       29.88S
SAC INTL ARPT  SUNNY     88  52  29 VRB5      29.88R
MATHER AIRPORT SUNNY     90  46  22 S3        29.88S
DOWNTOWN SAC   N/A       89  MM  MM MISG
SAC EXEC ARPT  SUNNY     87  52  29 VRB3      29.88S
VACAVILLE      SUNNY     95  49  20 SE5       29.90R HX  92
TRAVIS AFB     SUNNY     89  49  24 SW8       29.88R
$$
CAZ019>021-291900-
SAN JOAQUIN VALLEY

CITY           SKY/WX    TMP DP  RH WIND       PRES   REMARKS
STOCKTON       SUNNY     91  48  22 N5        29.89R
MODESTO        SUNNY     91  43  18 VRB3      29.88S
MERCED         SUNNY     90  41  18 N7        29.88F
LEMOORE        SUNNY     95  41  15 N6        29.89F HX  91
FRESNO         SUNNY     91  49  23 S8        29.90S
HANFORD        SUNNY     93  42  17 VRB5      29.90R
PORTERVILLE    SUNNY     91  52  25 W7        29.91S
BAKERSFIELD    SUNNY     95  42  16 CALM      29.89F HX  91
$$
CAZ011-012-071-291900-
NORTHERN MOUNTAINS

CITY           SKY/WX    TMP DP  RH WIND       PRES   REMARKS
YREKA          SUNNY     82  36  19 SW6       30.13F
MOUNT SHASTA   SUNNY     83  41  22 CALM      30.16F
ALTURAS        SUNNY     81  26  13 N5        30.24S
$$
CAZ011-012-071-291900-
SIERRA NEVADA MTNS

CITY           SKY/WX    TMP DP  RH WIND       PRES   REMARKS
BLUE CANYON    SUNNY     81  31  16 S8        30.25R
TRUCKEE        SUNNY     73  30  20 N6        30.31F
TAHOE VLY ARPT SUNNY     78  30  17 VRB7      30.32S
MAMMOTH LAKES  FAIR      75  25  15 E7        30.39R
$$



USA.gov is the U.S. government's official web portal to all federal, state and local government web resources and services.